Track IRIDIUM 132 now! 10-day predictions IRIDIUM 132 is classified as:
1 42961U 17061G 25199.44924350 .00000065 00000-0 16246-4 0 9998 2 42961 86.4014 164.7388 0002204 84.2045 275.9402 14.34217529406989